This is the latest recevied weather packets stored in our database for station/object OK2ILA-10. If no packets are shown the sender has not sent any weather packets the latest 10 day(s).
| Time | Temp. | Humidity | Pressure | Rain* | Wind** | Luminosity | Snow |
|---|---|---|---|---|---|---|---|
| 1787754102 | 17.78° C | 61% | 1021.6 hPa | - | - | - | - |
| 1787753502 | 18.33° C | 61% | 1021.8 hPa | - | - | - | - |
| 1787752901 | 18.33° C | 61% | 1021.6 hPa | - | - | - | - |
| 1787752301 | 18.89° C | 60% | 1021.6 hPa | - | - | - | - |
| 1787751701 | 18.89° C | 62% | 1021.5 hPa | - | - | - | - |
| 1787751101 | 18.33° C | 63% | 1021.5 hPa | - | - | - | - |
| 1787750501 | 17.78° C | 63% | 1021.4 hPa | - | - | - | - |
| 1787749900 | 18.33° C | 64% | 1021.3 hPa | - | - | - | - |
| 1787749300 | 18.89° C | 63% | 1021.3 hPa | - | - | - | - |
| 1787748700 | 18.89° C | 65% | 1021.5 hPa | - | - | - | - |
| 1787748100 | 18.33° C | 65% | 1021.5 hPa | - | - | - | - |
| 1787747500 | 18.33° C | 67% | 1021.5 hPa | - | - | - | - |
| 1787746899 | 18.33° C | 66% | 1021.5 hPa | - | - | - | - |
| 1787746299 | 18.33° C | 66% | 1021.5 hPa | - | - | - | - |
| 1787745699 | 18.89° C | 65% | 1021.4 hPa | - | - | - | - |
| 1787745099 | 18.33° C | 64% | 1021.3 hPa | - | - | - | - |
| 1787744499 | 18.33° C | 64% | 1021.3 hPa | - | - | - | - |
| 1787743898 | 18.89° C | 65% | 1021.3 hPa | - | - | - | - |
| 1787743298 | 19.44° C | 63% | 1021.3 hPa | - | - | - | - |
| 1787742698 | 19.44° C | 63% | 1021.4 hPa | - | - | - | - |
| 1787742098 | 19.44° C | 64% | 1021.4 hPa | - | - | - | - |
| 1787741498 | 18.89° C | 64% | 1021.5 hPa | - | - | - | - |
| 1787740897 | 20° C | 63% | 1021.5 hPa | - | - | - | - |
| 1787740297 | 20.56° C | 62% | 1021.4 hPa | - | - | - | - |
| 1787739701 | 19.44° C | 62% | 1021.4 hPa | - | - | - | - |
* Rain since midnight (hover to see other rain measurements)
** Current wind speed in m/s (hover to see current wind gust speed)